sat.trackr.live / text

‹ back to catalog

HELIOS

NORAD 69021 · 2026-100AT

PAYLOAD ACTIVE UNKNOWN

§ Identity

Operator
Country
GREC
Launch date
2026-05-03
Launch site
AFWTR
Launch vehicle
Mass (kg)
RCS (m²)

External: N2YO · Heavens-Above · Gunter

§ Orbital elements

Epoch: 2026-09-19T11:23:44.039328Z

Period
94.67 min
Inclination
97.3885°
Eccentricity
0.0005596
Mean motion
15.21075023 rev/d
Perigee alt
498.7 km
Apogee alt
506.4 km
Semi-major
6,880.7 km
B*
2.0871e-4
RAAN
158.4794°
Arg perigee
37.3050°
Mean anomaly
322.8574°
Rev number
2,113

§ Raw data

HELIOS1 69021U 26100AT  26262.47481527  .00004571  00000+0  20871-3 0  99902 69021  97.3885 158.4794 0005596  37.3050 322.8574 15.21075023 21135

JSON: /api/v1/satellites/69021 · /tle

For live sub-satellite position, see the globe view (requires WebGL).

§ Visibility from observer

Set your observer location to see the next 7 days of passes ≥ 10°. The values pass through the URL so the page stays shareable.

No JS? Fill the form by hand. The geolocation button needs JavaScript.

§ Radio — SatNOGS DB

ModeDescriptionDownlinkUplink
FSK S Band 2.255 GHz

1 transmitter · refreshed weekly from db.satnogs.org